This demonstration page uses our WeatherBlox Daily Observations layout. Learn more.

Left ArrowRight Arrow

Hourly Observations for June 17, 2021

Temp ( °F °C ) Dew Point ( °F °C ) Humidity (%) Winds ( mph kmh ) Pressure ( in mb ) Visibility ( mi km ) Precip ( " mm )
12:15 am 00:15 Clear 81 27.2 59 15 47 47 SSW 10 17 29.80 1009 10 16 N/A
12:35 am 00:35 Clear 79 26.2 59 15.1 50 50 SSW 9 15 29.81 1009 10 16 N/A
12:55 am 00:55 Clear 77 25.1 59 15 54 54 SSW 8 13 29.82 1010 10 16 N/A
1:15 am 01:15 Clear 78 25.3 59 14.8 52 52 SSW 10 17 29.80 1009 10 16 N/A
1:35 am 01:35 Clear 76 24.5 59 14.8 55 55 SW 6 9 29.81 1010 10 16 N/A
1:55 am 01:55 Clear 76 24.6 58 14.5 53 53 SSW 9 15 29.81 1009 10 16 N/A
2:15 am 02:15 Clear 76 24.7 58 14.4 53 53 SSW 9 15 29.81 1009 10 16 N/A
2:35 am 02:35 Clear 75 24.1 58 14.3 54 54 SSW 7 11 29.81 1010 10 16 N/A
2:55 am 02:55 Clear 75 23.8 58 14.3 55 55 SSW 6 9 29.82 1010 10 16 N/A
3:15 am 03:15 Clear 74 23.6 58 14.5 57 57 SW 5 7 29.82 1010 10 16 N/A
3:35 am 03:35 Clear 74 23.1 58 14.5 59 59 N N/A 29.82 1010 10 16 N/A
3:55 am 03:55 Clear 71 21.5 59 15.2 67 67 S 3 6 29.84 1010 10 16 N/A
4:15 am 04:15 Clear 74 23.1 59 15 60 60 S 5 7 29.82 1010 10 16 N/A
4:35 am 04:35 Clear 69 20.6 60 15.3 72 72 SE 6 9 29.83 1010 10 16 N/A
4:55 am 04:55 Clear 68 20 59 15.2 74 74 SSE 5 7 29.85 1011 10 16 N/A
5:15 am 05:15 Clear 70 21 59 15 69 69 S 7 11 29.83 1010 10 16 N/A
5:35 am 05:35 Clear 71 21.6 59 15 66 66 S 6 9 29.81 1010 10 16 N/A
5:55 am 05:55 Clear 72 22.1 58 14.7 63 63 S 8 13 29.80 1009 10 16 N/A
6:15 am 06:15 Sunny 71 21.8 59 15.1 66 66 S 7 11 29.80 1009 10 16 N/A
6:35 am 06:35 Sunny 69 20.7 60 15.5 72 72 SW 3 6 29.81 1010 10 16 N/A
6:55 am 06:55 Sunny 71 21.9 60 15.8 68 68 SW 3 6 29.80 1009 10 16 N/A
7:15 am 07:15 Sunny 73 23 61 16 65 65 SSW 5 7 29.79 1009 10 16 N/A
7:35 am 07:35 Sunny 75 23.9 62 16.4 63 63 SSW 8 13 29.79 1009 10 16 N/A
7:55 am 07:55 Sunny 76 24.7 62 16.7 61 61 SSW 6 9 29.78 1008 10 16 N/A
8:15 am 08:15 Sunny 78 25.7 62 16.4 57 57 SSW 7 11 29.77 1008 10 16 N/A
8:35 am 08:35 Sunny 80 26.5 62 16.6 55 55 SW 5 7 29.77 1008 10 16 N/A
8:55 am 08:55 Sunny 81 27.2 62 16.8 53 53 W 3 6 29.77 1008 10 16 N/A
9:15 am 09:15 Sunny 82 27.7 62 16.6 51 51 WSW 5 7 29.77 1008 10 16 N/A
9:35 am 09:35 Sunny 83 28.2 62 16.4 49 49 WSW 6 9 29.75 1008 10 16 N/A
9:55 am 09:55 Sunny 84 29 62 16.4 47 47 WSW 8 13 29.76 1008 10 16 N/A
10:15 am 10:15 Sunny 85 29.5 62 16.6 46 46 SSW 6 9 29.74 1007 10 16 N/A
10:35 am 10:35 Sunny 86 30.1 63 17.1 46 46 SW 5 7 29.74 1007 10 16 N/A
10:55 am 10:55 Sunny 88 31 62 16.6 42 42 SSW 9 15 29.72 1006 10 16 N/A
11:15 am 11:15 Sunny 89 31.4 62 16.5 41 41 S 8 13 29.72 1006 10 16 N/A
11:35 am 11:35 Sunny 90 32.2 62 16.8 40 40 S 9 15 29.71 1006 10 16 N/A
11:55 am 11:55 Sunny 91 33 62 16.6 37 37 SSW 10 17 29.71 1006 10 16 N/A
12:15 pm 12:15 Sunny 93 33.7 63 17.4 38 38 SSW 12 19 29.70 1006 10 16 N/A
12:35 pm 12:35 Sunny 94 34.5 63 17.3 36 36 S 12 19 29.69 1006 10 16 N/A
12:55 pm 12:55 Sunny 94 34.6 63 17.3 36 36 S 14 22 29.68 1005 10 16 N/A
1:15 pm 13:15 Sunny 96 35.5 64 17.6 35 35 S 14 22 29.67 1005 10 16 N/A
1:35 pm 13:35 Sunny 97 36.3 63 17 32 32 S 13 20 29.65 1004 10 16 N/A
1:55 pm 13:55 Sunny 99 37.1 61 16 29 29 S 18 30 29.64 1004 10 16 N/A
2:15 pm 14:15 Sunny 99 37.3 61 16.1 28 28 S 20 31 29.62 1003 10 16 N/A
2:35 pm 14:35 Sunny 101 38.1 59 15 25 25 S 21 33 29.61 1003 10 16 N/A
2:55 pm 14:55 Sunny 101 38.5 57 13.7 23 23 S 20 31 29.60 1002 10 16 N/A
3:15 pm 15:15 Sunny 102 38.7 55 12.5 21 21 S 23 37 29.59 1002 10 16 N/A
3:35 pm 15:35 Sunny 102 39 54 12.3 20 20 S 21 33 29.58 1002 10 16 N/A
3:55 pm 15:55 Sunny 102 39 53 11.5 19 19 S 17 28 29.59 1002 10 16 N/A
4:15 pm 16:15 Sunny 103 39.2 53 11.5 19 19 SSW 17 28 29.58 1002 10 16 N/A
4:35 pm 16:35 Sunny 103 39.3 50 9.8 17 17 S 17 28 29.58 1002 10 16 N/A
4:55 pm 16:55 Sunny 103 39.5 50 10.1 17 17 S 21 33 29.56 1001 10 16 N/A
5:15 pm 17:15 Sunny 103 39.4 51 10.7 18 18 S 20 31 29.56 1001 10 16 N/A
5:35 pm 17:35 Sunny 103 39.4 50 10.1 17 17 S 16 26 29.55 1001 10 16 N/A
5:55 pm 17:55 Sunny 103 39.2 51 10.5 18 18 S 16 26 29.55 1001 10 16 N/A
6:15 pm 18:15 Sunny 102 38.8 54 12.3 20 20 S 13 20 29.54 1000 10 16 N/A
6:35 pm 18:35 Sunny 101 38.5 54 12.1 20 20 S 13 20 29.55 1001 10 16 N/A
6:55 pm 18:55 Sunny 100 37.9 56 13.5 23 23 S 10 17 29.55 1001 10 16 N/A
7:15 pm 19:15 Sunny 99 37.2 58 14.2 25 25 S 10 17 29.55 1001 10 16 N/A
7:35 pm 19:35 Sunny 98 36.5 57 13.9 26 26 S 13 20 29.56 1001 10 16 N/A
7:55 pm 19:55 Sunny 96 35.5 57 14.1 28 28 S 10 17 29.57 1001 10 16 N/A
8:15 pm 20:15 Sunny 94 34.6 56 13.3 28 28 S 10 17 29.57 1001 10 16 N/A
8:35 pm 20:35 Sunny 92 33.5 55 12.6 28 28 S 10 17 29.58 1002 10 16 N/A
8:55 pm 20:55 Sunny 89 31.5 55 12.8 32 32 WSW 5 7 29.61 1003 10 16 N/A
9:15 pm 21:15 Clear 89 31.8 55 12.5 31 31 W 6 9 29.61 1003 10 16 N/A
9:35 pm 21:35 Clear 89 31.9 54 12.1 30 30 WSW 8 13 29.61 1003 10 16 N/A
9:55 pm 21:55 Clear 91 32.5 53 11.4 27 27 W 6 9 29.62 1003 10 16 N/A
10:15 pm 22:15 Clear 88 31.3 53 11.5 30 30 W 6 9 29.64 1004 10 16 N/A
10:35 pm 22:35 Clear 89 31.7 52 10.9 28 28 SW 9 15 29.65 1004 10 16 N/A
10:55 pm 22:55 Clear 87 30.7 52 11 30 30 SW 7 11 29.65 1004 10 16 N/A
11:15 pm 23:15 Clear 86 30.2 52 10.9 30 30 WSW 8 13 29.66 1004 10 16 N/A
11:35 pm 23:35 Clear 87 30.6 51 10.5 29 29 WSW 8 13 29.65 1004 10 16 N/A
11:55 pm 23:55 Clear 86 30.1 51 10.5 30 30 WSW 10 17 29.66 1004 10 16 N/A

Powered by AerisWeather